EW8081 Weather Reports


time (UTC)temp
C
wind
direction
speed
KPH
gust
KPH
rain 1hr
cm
rain 24hr
cm
rain mn
cm
humidity
%
barometer
mb
20260504081546 19 44 3.2 8.0 0.00 0.05 0.05 84 1013.9
20260504044543 20 22 3.2 8.0 0.00 0.05 0.05 77 1013.4
20260504043036 20 24 3.2 6.4 0.00 0.05 0.05 77 1013.6
20260504041534 20 29 0.0 4.8 0.00 0.05 0.05 80 1013.5
20260504040034 19 39 0.0 4.8 0.00 0.05 0.05 82 1013.8
20260504034552 19 20 3.2 6.4 0.00 0.05 0.05 82 1014.0
20260504033030 19 35 0.0 6.4 0.03 0.05 0.05 82 1014.3
20260504031529 19 10 0.0 6.4 0.03 0.05 0.05 82 1014.4
20260504030040 19 360 1.6 8.0 0.05 0.05 0.05 83 1014.7
20260504024528 19 330 1.6 4.8 0.05 0.05 0.05 84 1015.0
20260504023027 19 344 1.6 8.0 0.05 0.05 0.05 82 1015.2
20260504021526 20 325 3.2 11.3 0.05 0.05 0.05 81 1015.5
20260504020026 20 314 3.2 9.7 0.03 0.03 0.03 79 1015.7
20260504014536 21 10 0.0 4.8 0.00 0.00 0.00 77 1016.0
20260504013025 21 10 1.6 4.8 0.00 0.00 0.00 75 1016.0
20260504011524 21 10 0.0 4.8 0.00 0.00 0.00 74 1016.3
20260504010028 21 38 0.0 6.4 0.00 0.00 0.00 74 1016.4
20260504004524 22 41 3.2 9.7 0.00 0.00 0.00 70 1016.1
20260504003030 22 41 1.6 6.4 0.00 0.00 0.00 73 1016.1
20260504001519 21 16 0.0 6.4 0.00 0.00 0.00 79 1016.2
20260504000015 21 47 1.6 8.0 0.00 0.00 0.00 82 1016.2
20260503234529 20 46 4.8 9.7 0.00 0.00 0.00 81 1016.2
20260503233012 20 10 3.2 8.0 0.00 0.00 0.00 80 1016.1
20260503231513 20 54 1.6 9.7 0.00 0.00 0.00 79 1016.4
20260503230009 20 58 4.8 9.7 0.00 0.00 0.00 78 1016.2
20260503224508 20 62 3.2 12.9 0.00 0.00 0.00 79 1016.1
20260503223005 20 59 4.8 9.7 0.00 0.00 0.00 81 1015.9
20260503221504 20 18 4.8 11.3 0.00 0.00 0.00 80 1015.7
20260503220002 20 25 3.2 12.9 0.00 0.00 0.00 80 1015.6
20260503214501 18 5 4.8 12.9 0.00 0.00 0.00 84 1015.5
20260503213112 18 37 6.4 9.7 0.00 0.00 0.00 86 1015.4
20260503211600 18 36 3.2 8.0 0.00 0.00 0.00 87 1015.4
20260503210201 17 27 1.6 9.7 0.00 0.00 0.00 87 1015.2
20260503204609 17 39 3.2 6.4 0.00 0.00 0.00 87 1015.2
20260503203105 17 40 3.2 6.4 0.00 0.00 0.00 88 1014.9
20260503201603 17 46 1.6 6.4 0.00 0.00 0.00 88 1014.9
20260503200101 17 49 1.6 6.4 0.00 0.00 0.00 89 1014.8
20260503194556 17 51 0.0 4.8 0.00 0.00 0.00 89 1014.7
20260503193100 16 20 0.0 3.2 0.00 0.00 0.00 88 1014.6
20260503191615 16 19 0.0 6.4 0.00 0.00 0.00 88 1014.6
20260503190055 17 18 0.0 4.8 0.00 0.00 0.00 87 1014.6
20260503184558 17 33 1.6 6.4 0.00 0.00 0.00 87 1014.6
20260503183110 17 78 1.6 4.8 0.00 0.00 0.00 87 1014.6
20260503181550 17 10 1.6 6.4 0.00 0.00 0.00 88 1014.4
20260503180049 17 54 1.6 6.4 0.00 0.00 0.00 87 1014.5
20260503174545 17 42 1.6 4.8 0.00 0.00 0.00 86 1014.5
20260503173108 17 41 0.0 6.4 0.00 0.00 0.00 86 1014.8
20260503171542 18 60 1.6 4.8 0.00 0.00 0.00 85 1014.9